www.pogodaiklimat.ru

Погода и климат >> Архив погоды >> Великобритания >> Магиллиган


ПОГОДА на Магиллигане

  • Прогноз погоды на Магиллигане
  • Монитор погоды на Магиллигане

АРХИВ ПОГОДЫ на Магиллигане

Время (UTC), дата Ветер
(напр.,м/с)
 
Видим.   Явления Облачность Т
(С)
Тd
(С)
f
(%)
Тe
(С)
Тes
(С)
Комфортность P
(гПа)
Po
(гПа)
Тmin
(С)
Tmax
(С)
R
(мм)
R24
(мм)
S
(см)
10 13.09 ЮЗ 5 18 км н/о +13.7 +11.1 84 +12 +12 1035.8 1035.1
11 13.09 ЮЗ 6 25 км н/о +14.8 +11.4 80 +13 +13 1036.0 1035.3
12 13.09 ЮЗ 6 22 км н/о +16.1 +11.1 72 +15 +15 1036.2 1035.5
13 13.09 ЮЗ 5 35 км н/о +16.1 +10.0 67 +15 +15 1036.3 1035.6
14 13.09 З 4 28 км н/о +16.2 +9.7 65 +16 +16 1035.8 1035.1
15 13.09 ЮЗ 6 45 км н/о +16.0 +9.2 64 +15 +15 1035.8 1035.1
16 13.09 З 4 40 км н/о +15.5 +9.5 67 +15 +15 1035.4 1034.7
17 13.09 З 3 26 км н/о +16.1 +9.4 64 +16 +16 1035.4 1034.6
18 13.09 ЮЗ 3 45 км н/о +14.7 +9.9 73 +14 +14 1035.3 1034.5 +17.2
19 13.09 ЮЗ 4 45 км н/о +12.6 +8.8 78 +11 +11 1035.1 1034.4
20 13.09 Ю 1 30 км н/о +10.0 +7.8 86 +10 +10 1035.1 1034.4
21 13.09 Ю 2 35 км н/о +7.4 +6.3 93 +6 +6 1034.8 1034.1
22 13.09 ЮЗ 4 35 км н/о +10.2 +7.4 83 +8 +8 1034.4 1033.6
23 13.09 ЮЗ 4 35 км н/о +10.1 +7.6 84 +8 +8 1034.4 1033.7
00 14.09 ЮЗ 4 40 км н/о +10.3 +7.2 81 +8 +8 1034.1 1033.3
01 14.09 Ю 4 45 км н/о +11.5 +8.4 81 +9 +9 1033.1 1032.4
02 14.09 ЮЗ 5 35 км н/о +11.4 +8.3 81 +9 +9 1032.5 1031.8
03 14.09 Ю 7 45 км н/о +12.1 +8.5 79 +9 +9 1030.6 1029.8
04 14.09 ЮЗ 5 45 км н/о +12.1 +9.0 81 +10 +10 1029.5 1028.8
05 14.09 Ю 8 50 км н/о +13.0 +8.7 75 +10 +10 1028.3 1027.5
06 14.09 ЮЗ 7 45 км н/о +13.5 +9.2 75 +11 +11 1027.9 1027.1 +6.9
07 14.09 ЮЗ 10
{14}
40 км н/о +13.3 +9.5 78 +10 +10 1027.5 1026.7
08 14.09 ЮЗ 9-15
{15}
50 км н/о +13.7 +9.0 73 +11 +11 1027.3 1026.6
09 14.09 ЮЗ 8
{13}
40 км н/о +13.9 +8.7 71 +11 +11 1027.2 1026.4
10 14.09 ЮЗ 10
{14}
50 км н/о +14.5 +8.5 67 +12 +12 1026.7 1025.9
11 14.09 ЮЗ 9
{13}
45 км н/о +15.0 +9.6 70 +13 +13 1026.2 1025.4
12 14.09 ЮЗ 7
{13}
50 км н/о +15.7 +11.3 75 +14 +14 1025.2 1024.5
13 14.09 ЮЗ 9 35 км н/о +16.0 +11.8 76 +14 +14 1024.5 1023.8
14 14.09 ЮЗ 9
{13}
30 км н/о +16.7 +12.8 78 +15 +15 1023.3 1022.6
15 14.09 ЮЗ 10
{15}
35 км н/о +18.2 +14.1 77 +17 +17 1022.6 1021.8
16 14.09 ЮЗ 10
{15}
30 км н/о +17.5 +14.2 81 +16 +16 1021.5 1020.8
17 14.09 ЮЗ 9
{14}
28 км н/о +16.8 +14.2 85 +15 +15 1021.4 1020.7
18 14.09 ЮЗ 12
{16}
12 км н/о +16.0 +14.3 90 +14 +14 1021.1 1020.4 +18.3
19 14.09 ЮЗ 10
{14}
6000 м в посл. час дождь н/о +15.4 +14.5 94 +13 +13 1021.0 1020.3
20 14.09 ЮЗ 11
{14}
4500 м слаб. морось с дождем н/о +15.1 +14.6 97 +12 +12 1021.3 1020.5
21 14.09 ЮЗ 8
{13}
4700 м морось н/о +14.9 +14.7 99 +13 +13 1021.4 1020.7
22 14.09 З 7 45 км в посл. час дождь н/о +13.2 +12.5 96 +10 +10 1022.4 1021.6
23 14.09 З 8 19 км в посл. час дождь н/о +12.8 +11.3 91 +10 +10 1022.5 1021.8
00 15.09 ЮЗ 6 15 км н/о +12.7 +11.4 92 +10 +10 1022.8 1022.1 3
01 15.09 ЮЗ 6 14 км н/о +13.0 +11.7 92 +11 +11 1022.9 1022.2
02 15.09 З 5 13 км н/о +12.9 +10.9 88 +11 +11 1023.0 1022.3
03 15.09 З 7 13 км н/о +12.5 +10.4 87 +10 +10 1022.9 1022.2
04 15.09 З 5 13 км н/о +12.6 +10.7 88 +10 +10 1023.0 1022.3
05 15.09 З 5 12 км н/о +12.5 +10.4 87 +10 +10 1023.3 1022.5
06 15.09 З 4 13 км в посл. час дождь н/о +12.1 +9.4 84 +10 +10 1023.1 1022.4 +12.1 3
07 15.09 З 4 14 км слаб. морось с дождем н/о +12.2 +8.9 80 +10 +10 1023.8 1023.1
08 15.09 З 4 15 км слаб. ливневой дождь н/о +12.2 +8.9 80 +10 +10 1023.9 1023.2
09 15.09 СЗ 5 6000 м ливневой дождь н/о +12.0 +9.6 85 +10 +10 1024.6 1023.8
10 15.09 З 4 18 км слаб. дождь н/о +12.4 +9.8 84 +10 +10 1024.8 1024.0
11 15.09 З 4 21 км слаб. морось с дождем н/о +12.4 +8.9 79 +10 +10 1024.5 1023.8
12 15.09 ЮЗ 4 29 км в посл. час дождь н/о +12.6 +8.8 78 +11 +11 1024.6 1023.9 0.6
13 15.09 ЮЗ 4 30 км н/о +13.2 +9.0 76 +12 +12 1024.5 1023.8
14 15.09 ЮЗ 2 9000 м в посл. час дождь н/о +11.6 +9.8 89 +10 +10 1024.6 1023.8
15 15.09 Ю 3 19 км в посл. час дождь н/о +11.4 +10.1 92 +9 +9 1024.2 1023.4
16 15.09 Ю 2 35 км н/о +12.8 +9.9 83 +12 +12 1023.7 1023.0
17 15.09 ЮВ 1 40 км н/о +12.9 +9.4 79 +13 +13 1023.3 1022.5
18 15.09 СЗ 1 30 км н/о +12.6 +9.5 81 +13 +13 1023.4 1022.6 +13.3 0.6
19 15.09 С 1 24 км н/о +11.8 +9.8 88 +12 +12 1023.4 1022.7
20 15.09 ЮВ 1 15 км н/о +11.3 +9.9 91 +11 +11 1023.4 1022.7
21 15.09 ЮВ 1 20 км н/о +11.0 +10.1 94 +11 +11 1023.5 1022.8
22 15.09 Ю 1 26 км н/о +11.0 +9.8 92 +11 +11 1023.7 1022.9
23 15.09 ЮЗ 1 25 км н/о +10.4 +9.5 94 +10 +10 1023.7 1023.0
00 16.09 ЮЗ 1 22 км н/о +10.3 +9.4 94 +11 +11 1023.7 1023.0
01 16.09 Ю 2 27 км н/о +10.4 +9.5 94 +9 +9 1023.6 1022.9
02 16.09 ЮЗ 2 19 км н/о +8.9 +8.0 94 +7 +7 1023.3 1022.6
03 16.09 ЮЗ 2 12 км н/о +7.6 +7.0 96 +6 +6 1023.4 1022.6
04 16.09 ЮЗ 2 600 м туман н/о +5.5 +4.9 96 +3 +3 1023.3 1022.5
05 16.09 Ю 1 16 км в посл. час туман н/о +5.8 +5.6 99 +4 +4 1023.1 1022.4
06 16.09 Ю 2 1100 м дымка н/о +6.2 +6.2 100 +4 +4 1023.3 1022.5 +5.2
07 16.09 Ю 3 25 км в посл. час туман н/о +9.6 +9.6 100 +7 +7 1023.5 1022.7
08 16.09 Ю 3 26 км н/о +10.6 +10.5 99 +9 +9 1023.8 1023.1
09 16.09 ЮЗ 4 28 км н/о +12.6 +10.4 86 +11 +11 1024.4 1023.7
10 16.09 ЮЗ 4 21 км н/о +13.0 +10.7 86 +11 +11 1024.9 1024.2
11 16.09 З 4 40 км н/о +13.7 +9.4 75 +12 +12 1024.9 1024.2
12 16.09 З 5 35 км н/о +14.3 +9.0 70 +13 +13 1025.0 1024.3
13 16.09 З 5 45 км н/о +14.3 +8.8 69 +13 +13 1025.3 1024.5
14 16.09 СЗ 7 40 км н/о +15.4 +9.2 67 +14 +14 1025.1 1024.4
15 16.09 СЗ 6 40 км н/о +14.4 +7.8 65 +13 +13 1025.2 1024.4
16 16.09 З 5 40 км н/о +13.8 +9.0 73 +12 +12 1025.1 1024.3
17 16.09 СЗ 5 45 км н/о +13.2 +7.7 69 +11 +11 1025.5 1024.7
18 16.09 СЗ 3 40 км н/о +12.8 +8.3 74 +11 +11 1025.6 1024.9 +15.4
19 16.09 СЗ 5 45 км н/о +12.5 +7.7 73 +10 +10 1025.8 1025.1
20 16.09 З 3 45 км н/о +12.2 +8.5 78 +11 +11 1025.8 1025.1
21 16.09 З 5 45 км н/о +12.4 +7.7 73 +10 +10 1026.0 1025.3
22 16.09 СЗ 4 45 км н/о +11.2 +7.4 77 +9 +9 1026.3 1025.6
23 16.09 З 3 50 км н/о +11.5 +8.0 79 +10 +10 1026.3 1025.6
00 17.09 З 3 40 км н/о +10.6 +8.3 86 +8 +8 1026.1 1025.4
01 17.09 З 3 30 км н/о +9.6 +7.5 87 +7 +7 1026.3 1025.5
02 17.09 З 3 35 км н/о +9.9 +7.5 85 +8 +8 1026.0 1025.3
03 17.09 З 3 35 км н/о +8.5 +6.9 90 +6 +6 1026.4 1025.7
04 17.09 З 2 29 км н/о +9.8 +7.9 88 +8 +8 1026.3 1025.6
05 17.09 З 2 24 км н/о +8.8 +7.2 90 +7 +7 1026.6 1025.8
06 17.09 З 3 23 км н/о +9.7 +8.2 90 +7 +7 1026.7 1026.0 +8.4
07 17.09 З 3 22 км н/о +10.9 +9.1 89 +9 +9 1027.2 1026.5
08 17.09 ЮЗ 3 30 км н/о +11.7 +9.0 83 +10 +10 1027.7 1026.9
09 17.09 Ю 4 25 км н/о +11.9 +9.8 87 +10 +10 1028.1 1027.4
10 17.09 СЗ 4 35 км н/о +14.0 +9.3 73 +13 +13 1028.5 1027.7
11 17.09 СЗ 4 30 км н/о +14.8 +9.4 70 +14 +14 1028.7 1028.0
12 17.09 С 3 22 км н/о +14.3 +9.8 74 +13 +13 1029.0 1028.2
13 17.09 С 4 26 км н/о +14.5 +8.7 68 +13 +13 1028.6 1027.9
14 17.09 СЗ 3 22 км н/о +15.4 +9.5 68 +15 +15 1028.8 1028.1
15 17.09 С 2 30 км н/о +15.0 +9.1 68 +15 +15 1028.7 1028.0
16 17.09 СВ 3 25 км н/о +14.6 +9.2 70 +14 +14 1028.4 1027.7
17 17.09 СВ 3 35 км н/о +13.6 +8.6 72 +13 +13 1028.6 1027.8
18 17.09 СВ 3 26 км н/о +12.8 +8.8 77 +12 +12 1028.4 1027.7 +15.8
19 17.09 СВ 2 24 км н/о +10.5 +8.2 86 +9 +9 1028.9 1028.2
20 17.09 ЮВ 2 24 км н/о +9.4 +7.7 89 +8 +8 1029.0 1028.3
21 17.09 ЮВ 1 27 км н/о +7.4 +6.5 94 +6 +6 1029.5 1028.7
22 17.09 Ю 2 26 км н/о +8.7 +8.5 99 +7 +7 1029.5 1028.8
23 17.09 Ю 3 30 км н/о +10.5 +9.3 92 +9 +9 1029.4 1028.7
00 18.09 Ю 3 30 км н/о +10.5 +8.5 87 +8 +8 1029.2 1028.5
01 18.09 Ю 3 30 км н/о +11.0 +8.9 87 +9 +9 1029.2 1028.5
02 18.09 Ю 2 27 км н/о +10.3 +8.5 89 +9 +9 1029.0 1028.3
03 18.09 ЮЗ 3 27 км н/о +10.8 +8.9 88 +9 +9 1028.7 1028.0
04 18.09 ЮЗ 3 25 км н/о +9.3 +8.4 94 +7 +7 1028.7 1027.9
05 18.09 ЮЗ 4 22 км н/о +8.4 +7.7 95 +5 +5 1028.9 1028.1
06 18.09 Ю 3 19 км н/о +8.5 +7.9 96 +6 +6 1029.3 1028.6 +6.6
07 18.09 Ю 4 25 км н/о +10.0 +9.0 93 +7 +7 1029.6 1028.8
08 18.09 Ю 4 21 км н/о +10.5 +9.2 92 +8 +8 1029.7 1029.0
09 18.09 ЮЗ 3 30 км н/о +11.7 +9.6 87 +10 +10 1030.1 1029.4
10 18.09 ЮЗ 4 35 км н/о +12.9 +10.1 83 +11 +11 1030.3 1029.6
11 18.09 ЮЗ 3 22 км н/о +14.2 +11.2 82 +13 +13 1030.5 1029.7
12 18.09 ЮЗ 5 26 км н/о +15.1 +11.2 78 +14 +14 1030.5 1029.8
13 18.09 ЮЗ 4 35 км н/о +16.2 +11.6 74 +16 +16 1030.4 1029.7
14 18.09 З 3 35 км н/о +16.9 +11.1 69 +17 +17 1030.4 1029.7
15 18.09 З 2 40 км н/о +17.2 +11.5 69 +18 +18 1030.3 1029.5
16 18.09 В 1 40 км н/о +16.3 +12.4 78 +17 +17 1030.1 1029.4
17 18.09 СВ 2 35 км н/о +15.2 +11.9 81 +15 +15 1030.2 1029.5
18 18.09 СВ 2 40 км н/о +13.6 +11.2 85 +13 +13 1030.2 1029.5 +17.4
19 18.09 С 1 45 км н/о +12.5 +10.4 87 +12 +12 1030.7 1029.9
20 18.09 Ю 1 30 км н/о +11.3 +10.5 95 +12 +12 1031.1 1030.3
21 18.09 ЮВ 1 35 км н/о +11.3 +10.8 97 +12 +12 1031.3 1030.5
22 18.09 ЮВ 1 35 км н/о +11.5 +11.0 97 +11 +11 1031.3 1030.5
23 18.09 ЮВ 2 40 км н/о +11.8 +11.2 96 +11 +11 1031.4 1030.6
00 19.09 ЮВ 2 25 км н/о +9.7 +9.0 95 +8 +8 1031.1 1030.4
01 19.09 ЮЗ 1 200 м туман н/о +8.0 +7.6 97 +7 +7 1030.9 1030.2
02 19.09 Ю 2 400 м туман н/о +6.8 +6.4 97 +5 +5 1030.5 1029.8
03 19.09 Ю 1 200 м туман н/о +6.4 +6.3 99 +5 +5 1030.3 1029.6
04 19.09 Ю 2 400 м туман н/о +7.0 +6.9 99 +5 +5 1030.3 1029.5
05 19.09 ЮЗ 3 7000 м в посл. час туман н/о +6.9 +6.9 100 +4 +4 1030.2 1029.4
06 19.09 ЮЗ 3 1700 м в посл. час туман н/о +7.7 +7.7 100 +5 +5 1030.4 1029.6 +5.8
07 19.09 ЮЗ 3 300 м туман н/о +9.4 +9.4 100 +7 +7 1030.5 1029.7
08 19.09 ЮЗ 3 13 км в посл. час туман н/о +10.7 +10.7 100 +9 +9 1030.7 1030.0
09 19.09 З 2 13 км н/о +12.4 +12.3 99 +11 +11 1031.0 1030.3
10 19.09 З 3 19 км н/о +13.8 +11.9 88 +13 +13 1031.0 1030.3
11 19.09 З 2 21 км н/о +15.2 +11.3 78 +15 +15 1030.9 1030.2
12 19.09 ЮЗ 2 30 км н/о +16.9 +12.1 73 +17 +17 1030.7 1030.0
13 19.09 З 2 24 км н/о +18.3 +12.7 70 +19 +19 1030.2 1029.5
14 19.09 ЮЗ 2 45 км н/о +20.5 +11.6 57 +23 +23 комфорт 1029.6 1028.9
15 19.09 СВ 3 30 км н/о +17.9 +14.0 78 +18 +18 1029.5 1028.7
16 19.09 СВ 4 14 км н/о +16.0 +13.9 87 +15 +15 1029.0 1028.3
17 19.09 СВ 4 27 км н/о +16.4 +13.7 84 +16 +16 1028.5 1027.8
18 19.09 СВ 4 25 км н/о +15.9 +13.0 83 +15 +15 1028.1 1027.4 +20.7
19 19.09 СВ 3 17 км н/о +14.0 +12.7 92 +13 +13 1028.2 1027.4
20 19.09 С 2 13 км н/о +12.8 +12.1 96 +12 +12 1028.3 1027.6
21 19.09 ЮЗ 1 19 км в посл. час туман н/о +11.2 +10.8 97 +12 +12 1028.3 1027.5
22 19.09 Ю 3 21 км н/о +10.7 +10.2 97 +9 +9 1028.1 1027.4
23 19.09 ЮЗ 2 23 км н/о +11.9 +10.0 88 +11 +11 1027.6 1026.9
00 20.09 В 1 20 км н/о +10.9 +9.4 90 +10 +10 1027.1 1026.4
01 20.09 СВ 1 23 км н/о +11.1 +9.7 91 +11 +11 1026.8 1026.0
02 20.09 СВ 2 14 км н/о +11.0 +10.4 96 +10 +10 1026.3 1025.6
03 20.09 В 1 8000 м дымка н/о +8.9 +8.0 94 +8 +8 1025.7 1024.9
04 20.09 ЮЗ 2 50 км н/о +10.3 +7.4 82 +9 +9 1025.0 1024.3
05 20.09 Ю 2 30 км н/о +9.3 +6.3 82 +8 +8 1024.4 1023.6
06 20.09 ЮЗ 3 40 км н/о +9.9 +7.6 86 +8 +8 1024.0 1023.3 +8.4
07 20.09 З 1 14 км н/о +8.9 +8.1 95 +8 +8 1023.7 1022.9
08 20.09 Ю 4 40 км н/о +14.0 +8.2 68 +13 +13 1023.5 1022.8
09 20.09 Ю 4 30 км н/о +16.5 +11.1 70 +16 +16 1023.5 1022.8
10 20.09 Ю 3 40 км н/о +17.9 +12.1 69 +18 +18 1023.1 1022.4
11 20.09 ЮВ 4 40 км н/о +19.5 +12.2 63 +21 +21 комфорт 1022.6 1021.8

 

Местоположение метеостанции Магиллиган (Великобритания): широта 55.15 долгота -6.93 высота над уровнем моря 6 м.

В архиве по умолчанию представлена погода на Магиллигане за последнюю неделю. Архивные данные за месяц целиком и за предыдущие месяцы, начиная с января 2011 года, Вы можете получить, выбрав интересующий диапазон дат из раскрывающегося списка и нажав кнопку "Ввод!".


*Определитесь, кто Вы:
робот инопланетянин человек

Внимание! Время в таблицах - всемирное. Для получения местного времени необходимо прибавить поправку, которая равна 0 ч.

Смотрите также архив погоды в соседних городах и на ближайших метеорологических станциях:

Погода в Малин Хед (Ирландия) (36 км)
Погода в Портгленоне (Великобритания) (44 км)
Погода на Озере Lough Fea (Великобритания) (48 км)
Погода в Баллипатрик Форест (Великобритания) (48 км)
Погода в Каследерге (Великобритания) (65 км)
Погода в Белфасте (Великобритания) (72 км)
Погода в Порт-Эллене (Великобритания) (73 км)
Погода в Макрайханише (Великобритания) (84 км)
Погода в Томастауне (Великобритания) (101 км)
Погода в Гленане (Великобритания) (106 км)

Пояснения к столбцам:

Ветер - указаны скорость ветра в м/с - средняя за 10 мин, порывы в срок и между сроками (в фигурных скобках) и направление, откуда дует ветер: С - северный, СВ - северо-восточный, В - восточный, ЮВ - юго-восточный, Ю - южный, ЮЗ - юго-западный, З - западный, СЗ - северо-западный.
Видимость - горизонтальная дальность видимости в метрах или километрах. При видимости от 1 до 10 км при отсутствии осадков обычно наблюдается дымка, при ухудшении видимости до 1 км и менее - туман. В сухую погоду видимость может ухудшаться дымом, пылью или мглою.
Явления - указаны атмосферные явления, наблюдавшиеся в срок или в последний час перед сроком; фигурными скобками обозначены явления, наблюдавшиеся между сроками (за 1-3 часа до срока); квадратными скобками обозначены град или гололедные отложения с указанием их диаметра в мм.
Облачность - указаны через наклонную черту общая и нижняя облачность в баллах и высота нижней границы облаков в метрах; квадратными скобками обозначены формы облаков: Ci - перистые, Cs - перисто-слоистые, Cc - перисто-кучевые, Ac - высококучевые, As - высокослоистые, Sc - слоисто-кучевые, Ns - слоисто-дождевые, Cu - кучевые, Cb - кучево-дождевые. Подробнее классификацию облаков см. в Атласе облаков (PDF).
T - Температура воздуха - температура, измеренная на высоте 2 м над землей.
Td - Температура точки росы - температура, при понижении до которой содержащийся в воздухе водяной пар достигнет насыщения.
f - Относительная влажность воздуха - влажноcть воздуха, измеренная на высоте 2 м над землей.
Te - Эффективная температура - температура, которую ощущает одетый по сезону человек в тени. Характеристика душности погоды. При расчете учитывается влияние влажности воздуха и скорости ветра на теплоощущения человека.
Tes - Эффективная температура на солнце - температура, которую ощущает человек, с поправкой на солнечный нагрев. Характеристика знойности погоды. Зависит от высоты солнца над горизонтом, облачности и скорости ветра. Ночью, в пасмурную погоду, а также при ветре 12 м/с и более поправка равна нулю.
P - Атмосферное давление - приведенное к уровню моря атмосферное давление.
Po - Атмосферное давление - измеренное на уровне метеостанции атмосферное давление.
Tmin - Минимальная температура - минимум температуры воздуха на высоте 2 м над землей.
Tmax - Максимальная температура - максимум температуры воздуха на высоте 2 м над землей.
R - Количество осадков - Количество выпавших осадков за период времени, мм. При наведении курсора мыши на число - период времени, за который выпало указанное количество осадков.
R24 - Количество осадков - Количество выпавших осадков за 24 часа, мм.
S - Снежный покров - Высота снежного покрова, см. При наведении курсора мыши на число - состояние снежного покрова и степень покрытия местности в баллах.